Terminal Aerodrome Forecast
Issued by NWS

Home | Current Version | Previous Version | Text Only | Print | Product List | Glossary On
Versions: 1 2 3 4 5 6 7 8 9 10 11 12 13 14 15 16 17 18 19 20 21 22 23 24
000
FTPA31 PHFO 210500
TAFKOA
TAF
PHKO 210531Z 2106/2206 08004KT P6SM SCT060
      TEMPO 2106/2108 30007KT FEW030 BKN050
     FM212100 24010KT P6SM FEW035 SCT060=

USA.gov is the U.S. government's official web portal to all federal, state and local government web resources and services.